User: anonymous   Login
Location: Unspecified
(0.0000°N, 0.0000°E)
Time: 20:21:26
(UTC+00:00)
Language:

QIANFAN-17 - Orbit

View from above orbital plane
View from above orbital plane
View from above satellite
View from above satellite

Ground track
Ground track

The orbit is defined by the following mean orbital elements,

1 60395U          26145.56205959 +.00000000 +00000-0 +13175-3 0 00005
2 60395  88.9726 282.4517 0017016  94.1756 266.1340 13.51006782    06
Epoch (UTC): 25 May 2026 13:29:21
Eccentricity: 0.0017016
inclination: 88.9726°
perigee height: 1056 km
apogee height: 1081 km
right ascension of ascending node: 282.4517°
argument of perigee: 94.1756°
revolutions per day: 13.51006782
mean anomaly at epoch: 266.1340°

The dashed part of the orbit path shows where the satellite is in the earth's shadow,  

DLR